Other Public Products
Issued by NWS Grand Forks, ND

Home | Current Version | Previous Version | Text Only | Print | Product List | Glossary On
Versions: 1 2 3 4 5 6 7 8 9 10 11 12 13 14 15 16 17 18 19 20 21 22 23 24 25 26 27 28 29 30 31 32 33 34 35 36 37 38 39 40 41 42 43 44 45 46 47 48 49 50
000
FPUS83 KFGF 021110
OPUFGF
PRAIRIE TO PINES WEATHER ROUNDUP
NATIONAL WEATHER SERVICE EASTERN NORTH DAKOTA/GRAND FORKS ND
500 AM CST MON MAR 02 2015

 **SATELLITE DATA USED TO AUGMENT SKY COVER AT AUTOMATED STATIONS**
 *****  WEATHER ACROSS EASTERN NORTH DAKOTA  *****

CITY           SKY/WX    TMP DP  RH WIND       PRES   REMARKS
GRAND FORKS    PTCLDY    -5  -9  83 SW7       30.35R WCI -19
GRAND FORKS AF PTCLDY     2  -3  79 SW6       30.34S WCI  -9
GRAND CITY NWS   N/A      1 N/A N/A SW3         N/A
BUXTON         NOT AVBL
DEVILS LAKE    PTCLDY     3   0  85 SW6       30.27F WCI  -8
FARGO          MOCLDY     2  -4  76 SW9       30.39S WCI -13
WAHPETON ARPT  MOSUNNY    3  -2  78 W5        30.40S WCI  -6
$$

 *****  WEATHER ACROSS CENTRAL AND WESTERN NORTH DAKOTA  *****

CITY           SKY/WX    TMP DP  RH WIND       PRES   REMARKS
JAMESTOWN      PTCLDY     1  -3  83 S3        30.29F
BISMARCK       PTCLDY     6   2  83 SE9       30.26F WCI  -8
MINOT          FAIR      11   2  67 S9        30.17F WCI  -2
MINOT AFB      PTCLDY     8   3  82 S10       30.16F WCI  -6
GARRISON         N/A      1  -2  87 E5        30.17F WCI  -9
WILLISTON      PTCLDY    11   4  73 S7        30.07F WCI   0
DICKINSON      CLEAR      8   3  80 S10       30.07F WCI  -6
HETTINGER      CLEAR     11   6  81 SE12      30.11F WCI  -3
$$

 *****  OTHER OBSERVATIONS NORTHEAST NORTH DAKOTA  *****

CITY           SKY/WX    TMP DP  RH WIND       PRES   REMARKS
WALHALLA         N/A      1   1 100 SW3       30.29S
LANGDON        NOT AVBL
CAVALIER       FAIR       1   0  92 SW3       30.30S
GRAFTON        NOT AVBL
CANDO          FAIR      -4  -9  77 S5        30.25F WCI -15
FORT TOTTEN    NOT AVBL
ROLLA          FAIR       5   1  85 SW7       30.20F WCI  -7
RUGBY          FAIR       1   0  92 S8        30.22F WCI -12
 ***** THE ABOVE OBSERVATIONS ARE NON NWS ARE NOT QUALITY
        CONTROLLED AND MAY MIS-REPORT RAIN FOR SNOW...
$$

 *****  OTHER OBSERVATIONS SOUTHEAST NORTH DAKOTA *****

CITY           SKY/WX    TMP DP  RH WIND       PRES   REMARKS
COOPERSTOWN    NOT AVBL
VALLEY CITY    FAIR       0   0 100 CALM      30.32F
OAKES            N/A     -2  -8  78 S9        30.35F WCI -18
GWINNER        SUNNY      3   0  85 SW8       30.37F WCI -10
SHEYENNE NWR     N/A     -1  -6  78 SW6       29.95S WCI -13
BUFFALO        NOT AVBL
WYNDMERE         N/A      1  -2  85 SW3         N/A
 ***** THE ABOVE OBSERVATIONS ARE NON NWS ARE NOT QUALITY
       CONTROLLED AND MAY MIS-REPORT RAIN FOR SNOW...
$$

  *****  WEATHER ACROSS NORTHERN MINNESOTA  *****

CITY           SKY/WX    TMP DP  RH WIND       PRES   REMARKS
FLAG ISLAND    PTCLDY     1   0  92 CALM      30.27S
WARROAD        PTCLDY    -6  -9  84 SW5       30.30R WCI -17
ROSEAU         PTCLDY    -6  -9  84 S5        30.30R WCI -17
HALLOCK        NOT AVBL
THF RVR FALLS  PTCLDY    -2  -2 100 CALM      30.32S
HALSTAD        NOT AVBL
FOSSTON        MOCLDY    -8 -11  84 S5        30.33S WCI -19
BAUDETTE       PTCLDY    -5  -9  83 SE3       30.28R
WASKISH        MOCLDY     0  -2  92 CALM      30.31S
CROOKSTON      PTCLDY    -2  -6  84 SE7       30.36S WCI -16
$$
  *****  WEATHER ACROSS CENTRAL AND WEST MINNESOTA  *****

CITY           SKY/WX    TMP DP  RH WIND       PRES   REMARKS
BEMIDJI        MOCLDY    -4  -7  86 CALM      30.32R
PARK RAPIDS    MOCLDY    -4 -10  75 CALM      30.34R
WADENA         MOCLDY     1   0  92 CALM      30.36F
DETROIT LAKES  MOCLDY     0  -4  85 CALM      30.36S
MOORHEAD       MOCLDY     1   0  92 S6        30.39F WCI -10
FERGUS FALLS   PTCLDY     3   0  85 SE3       30.43F
ELBOW LAKE     FAIR       2  -1  87 SE5       30.39F WCI  -8
MORRIS MN      PTCLDY     1  -2  85 CALM      30.39F
STAPLES        PTCLDY     1   0  92 CALM      30.37S
WHEATON        NOT AVBL
$$
  *****  WEATHER ELSEWHERE ACROSS MINNESOTA  *****

CITY           SKY/WX    TMP DP  RH WIND       PRES   REMARKS
DULUTH         PTCLDY     7   2  80 NW10      30.31S WCI  -8
INTRNTL FALLS  PTCLDY   -11 -14  86 SW3       30.29S
ELY            CLEAR      3   1  92 SW5       30.29R WCI  -6
CLOQUET        PTCLDY     5   1  85 W6        30.34R WCI  -6
BRAINERD       MOCLDY    -3  -6  87 CALM      30.38R
HIBBING        PTCLDY    -5  -9  83 CALM      30.31S
ALEXANDRIA     PTCLDY     2  -1  88 S5        30.38S WCI  -8
SAINT CLOUD    PTCLDY     5   2  87 S5        30.43R WCI  -4
MINNEAPOLIS    PTCLDY    12   6  77 W3        30.47R
$$

  *****  WEATHER ACROSS SOUTH DAKOTA  *****

CITY           SKY/WX    TMP DP  RH WIND       PRES   REMARKS
SIOUX FALLS    PTCLDY     7   3  84 CALM      30.44S
BROOKINGS      NOT AVBL
WATERTOWN      MOCLDY    -2  -7  79 S5        30.38S WCI -12
HURON          PTCLDY     4   1  88 S6        30.41F WCI  -7
SISSETON         N/A      6   0  76 SW8       30.39S WCI  -7
ABERDEEN       FOG        2  -2  83 S5        30.39S VSB 3/4 WCI  -8
MITCHELL       PTCLDY     5   2  87 SE6       30.42F WCI  -6
PIERRE         PTCLDY    12   9  87 SE8       30.30F WCI   0
MOBRIDGE       PTCLDY     9   6  88 SE9       30.26F WCI  -4
RAPID CITY     MOCLDY    15   8  73 S17       30.08F WCI  -1
$$

  *****  SOME WEATHER IN NEARBY STATES *****

CITY           SKY/WX    TMP DP  RH WIND       PRES   REMARKS
GLASGOW MT     PTCLDY    17   9  70 SE15      29.89F WCI   2
GREAT FALLS MT MOCLDY    29  10  45 SW18      29.78F WCI  16
CHEYENNE WY    LGT SNOW  20  16  84 S16       30.00F FOG     WCI   6
SCOTTSBLUFF NE CLOUDY    30  18  60 SE10      30.10F WCI  21
OMAHA NE       CLOUDY    18  14  84 NE5       30.48S WCI  11
DES MOINES IA  CLEAR     20  12  71 CALM      30.51R
DAVENPORT IA   PTCLDY     6   1  80 W5        30.50R WCI  -3
CHICAGO IL     CLEAR     15   8  73 W9        30.44R WCI   3
EAU CLAIRE WI  CLEAR      7   2  80 SW5       30.43R WCI  -2
LA CROSSE WI   CLEAR     10   7  87 N6        30.44R WCI   0
$$

  *****  SOME NATIONAL WEATHER *****

CITY           SKY/WX    TMP DP  RH WIND       PRES   REMARKS
LA GUARDIA NY  CLOUDY    31  25  78 CALM      30.02S
RALEIGH NC     LGT RAIN  37  35  92 W5        30.20R VSB 1/8
ATLANTA GA     DRZL/FOG  46  45  96 W6        30.29R VSB 3/4
NEW ORLEANS LA CLOUDY    60  58  92 CALM      30.25S
OKLAHOMA CITY  MOCLDY    28  22  78 N5        30.41S WCI  23
ALBUQUERQUE NM CLOUDY    37  31  78 N12       30.07F
SALT LAKE CITY MOCLDY    37  31  78 SW6       29.84F
LOS ANGELES CA MOCLDY    50  47  89 CALM      29.90F
BOISE ID       CLEAR     32  20  61 SE10      29.87F WCI  24
SEATTLE WA     CLOUDY    43  35  73 N8        29.98S
$$

*** WEATHER ACROSS MANITOBA...SASKATCHEWAN AND ONTARIO ***
                ***ONTARIO***

CITY           SKY/WX    TMP DP  RH WIND       PRES   REMARKS
GERALDTON      PTCLDY     1  -4  78 W7        30.13R WCI -11
THUNDER BAY    CLEAR      7  -2  66 W6        30.30R WCI  -3
SIOUX LOOKOUT  CLEAR    -11 -15  84 SW6       30.22R WCI -25
TORONTO        MOCLDY    19  14  79 W14       30.14R WCI   6
BIG TROUT LK   CLEAR    -17 -22  76 W8        30.08R WCI -34
PICKLE LAKE    CLEAR     -6 -15  65 W8        30.13  WCI -21
DRYDEN         CLEAR      0  -4  85 SW6       30.23R WCI -12
KENORA         CLEAR      0  -2  92 SW6       30.24F WCI -12
$$
                *** MANITOBA***

CITY           SKY/WX    TMP DP  RH WIND       PRES   REMARKS
BRANDON        CLEAR    -13 -18  77 W5        30.21S WCI -25
DAUPHIN        CLEAR      3   1  92 SW7       30.13F WCI  -9
ISLAND LAKE    CLEAR     -8 -15  71 SW7       30.10F WCI -22
PILOT MOUND      N/A     -8 -13  77 S6          N/A  WCI -21
THE PAS        CLEAR     -2  -6  84 SE9       29.95F WCI -18
THOMPSON       PTCLDY    -6 -15  65 VRB2      29.91F
WINNIPEG       CLEAR      0  -6  78 S7        30.27F WCI -13
LYNN LAKE      PTCLDY     5  -4  66 S9        29.71F WCI  -9
CHURCHILL      CRYSTALS -18 -27  63 SW5       29.92F WCI -31
GILLAM         CLOUDY   -13 -20  70 SW7       29.97F WCI -29
$$
                ***SASKATCHEWAN***

CITY           SKY/WX    TMP DP  RH WIND       PRES   REMARKS
ESTEVAN        MOCLDY     0  -6  78 SE9       30.07F WCI -16
KINDERSLEY     MOCLDY    14   7  73 S9        29.73F WCI   2
LLOYDMINSTER   FLURRIES  18  14  86 W13       29.71F WCI   4
PRINCE ALBERT  PTCLDY     5   1  85 SW3       29.83F
REGINA         CLEAR      1  -4  78 SE17      29.96F WCI -19


USA.gov is the U.S. government's official web portal to all federal, state and local government web resources and services.